| time (UTC) | temp F | wind direction | speed MPH | gust MPH | rain 1hr in | rain 24hr in | rain mn in | humidity % | barometer mb |
| 20260906211501 | 97 | 55 | 1.0 | 8.0 | 0.00 | 0.00 | 0.00 | 53 | 1006.8 |
| 20260906210059 | 97 | 106 | 2.0 | 6.0 | 0.00 | 0.00 | 0.00 | 52 | 1007.3 |
| 20260906204607 | 97 | 102 | 1.0 | 5.0 | 0.00 | 0.00 | 0.00 | 50 | 1007.9 |
| 20260906203054 | 98 | 109 | 1.0 | 4.0 | 0.00 | 0.00 | 0.00 | 50 | 1008.0 |
| 20260906201558 | 97 | 109 | 0.0 | 5.0 | 0.00 | 0.00 | 0.00 | 49 | 1008.3 |
| 20260906200050 | 97 | 120 | 4.0 | 7.0 | 0.00 | 0.00 | 0.00 | 50 | 1008.5 |
| 20260906194547 | 97 | 66 | 2.0 | 7.0 | 0.00 | 0.00 | 0.00 | 51 | 1008.7 |
| 20260906193047 | 97 | 75 | 2.0 | 7.0 | 0.00 | 0.00 | 0.00 | 50 | 1008.9 |
| 20260906191544 | 97 | 62 | 1.0 | 5.0 | 0.00 | 0.00 | 0.00 | 52 | 1009.0 |
| 20260906190047 | 96 | 110 | 1.0 | 4.0 | 0.00 | 0.00 | 0.00 | 53 | 1009.1 |
| 20260906184542 | 96 | 103 | 2.0 | 7.0 | 0.00 | 0.00 | 0.00 | 53 | 1009.3 |
| 20260906183042 | 95 | 127 | 3.0 | 5.0 | 0.00 | 0.00 | 0.00 | 55 | 1009.6 |
| 20260906181538 | 95 | 91 | 1.0 | 6.0 | 0.00 | 0.00 | 0.00 | 56 | 1009.9 |
| 20260906180038 | 95 | 106 | 3.0 | 7.0 | 0.00 | 0.00 | 0.00 | 56 | 1010.2 |
| 20260906174535 | 95 | 85 | 2.0 | 6.0 | 0.00 | 0.00 | 0.00 | 57 | 1010.4 |
| 20260906173034 | 94 | 133 | 2.0 | 5.0 | 0.00 | 0.00 | 0.00 | 58 | 1010.4 |
| 20260906171531 | 94 | 112 | 1.0 | 7.0 | 0.00 | 0.00 | 0.00 | 59 | 1010.7 |
| 20260906170103 | 93 | 199 | 3.0 | 7.0 | 0.00 | 0.00 | 0.00 | 59 | 1010.9 |
| 20260906164525 | 92 | 102 | 2.0 | 6.0 | 0.00 | 0.00 | 0.00 | 62 | 1011.1 |
| 20260906163024 | 92 | 79 | 2.0 | 4.0 | 0.00 | 0.00 | 0.00 | 64 | 1011.2 |
| 20260906161521 | 90 | 94 | 1.0 | 6.0 | 0.00 | 0.00 | 0.00 | 66 | 1011.2 |
| 20260906160018 | 90 | 96 | 2.0 | 6.0 | 0.00 | 0.00 | 0.00 | 67 | 1011.3 |
| 20260906154520 | 88 | 66 | 0.0 | 4.0 | 0.00 | 0.00 | 0.00 | 72 | 1011.2 |
| 20260906153016 | 87 | 62 | 0.0 | 4.0 | 0.00 | 0.00 | 0.00 | 73 | 1011.0 |
| 20260906151508 | 86 | 49 | 1.0 | 6.0 | 0.00 | 0.00 | 0.00 | 73 | 1011.0 |
| 20260906150006 | 85 | 67 | 2.0 | 7.0 | 0.00 | 0.00 | 0.00 | 73 | 1011.0 |
| 20260906144502 | 84 | 47 | 2.0 | 8.0 | 0.00 | 0.00 | 0.00 | 74 | 1011.1 |
| 20260906143129 | 83 | 87 | 2.0 | 5.0 | 0.00 | 0.00 | 0.00 | 75 | 1011.1 |
| 20260906141557 | 82 | 87 | 1.0 | 6.0 | 0.00 | 0.00 | 0.00 | 77 | 1011.3 |
| 20260906140054 | 81 | 87 | 1.0 | 3.0 | 0.00 | 0.00 | 0.00 | 80 | 1011.3 |
| 20260906134558 | 80 | 87 | 1.0 | 5.0 | 0.00 | 0.00 | 0.00 | 82 | 1011.3 |
| 20260906133045 | 78 | 87 | 0.0 | 2.0 | 0.00 | 0.00 | 0.00 | 87 | 1011.2 |
| 20260906131541 | 76 | 87 | 0.0 | 0.0 | 0.00 | 0.00 | 0.00 | 93 | 1011.0 |
| 20260906130040 | 74 | 87 | 0.0 | 0.0 | 0.00 | 0.00 | 0.00 | 94 | 1010.9 |
| 20260906124544 | 73 | 87 | 0.0 | 0.0 | 0.00 | 0.00 | 0.00 | 94 | 1010.7 |
| 20260906123106 | 72 | 87 | 0.0 | 0.0 | 0.00 | 0.00 | 0.00 | 94 | 1010.5 |
| 20260906121540 | 72 | 87 | 0.0 | 0.0 | 0.00 | 0.00 | 0.00 | 94 | 1010.4 |
| 20260906120032 | 72 | 87 | 0.0 | 0.0 | 0.00 | 0.00 | 0.00 | 93 | 1010.1 |
| 20260906114533 | 72 | 87 | 0.0 | 0.0 | 0.00 | 0.00 | 0.00 | 93 | 1010.0 |
| 20260906113032 | 72 | 87 | 0.0 | 0.0 | 0.00 | 0.00 | 0.00 | 93 | 1009.9 |
| 20260906111531 | 73 | 87 | 0.0 | 0.0 | 0.00 | 0.00 | 0.00 | 93 | 1009.9 |
| 20260906110028 | 73 | 87 | 0.0 | 0.0 | 0.00 | 0.00 | 0.00 | 93 | 1009.8 |
| 20260906104530 | 73 | 87 | 0.0 | 0.0 | 0.00 | 0.00 | 0.00 | 93 | 1009.6 |
| 20260906103026 | 73 | 87 | 0.0 | 0.0 | 0.00 | 0.00 | 0.00 | 93 | 1009.7 |
| 20260906101526 | 73 | 87 | 0.0 | 0.0 | 0.00 | 0.00 | 0.00 | 93 | 1009.7 |
| 20260906100027 | 73 | 87 | 0.0 | 0.0 | 0.00 | 0.00 | 0.00 | 92 | 1009.7 |
| 20260906094522 | 73 | 87 | 0.0 | 0.0 | 0.00 | 0.00 | 0.00 | 92 | 1009.6 |
| 20260906093023 | 73 | 87 | 0.0 | 0.0 | 0.00 | 0.00 | 0.00 | 92 | 1009.4 |
| 20260906091520 | 74 | 87 | 0.0 | 0.0 | 0.00 | 0.00 | 0.00 | 91 | 1009.3 |
| 20260906090020 | 74 | 87 | 0.0 | 0.0 | 0.00 | 0.00 | 0.00 | 91 | 1009.2 |
| 20260906084518 | 74 | 87 | 0.0 | 0.0 | 0.00 | 0.00 | 0.00 | 91 | 1009.1 |
| 20260906083020 | 74 | 87 | 0.0 | 0.0 | 0.00 | 0.00 | 0.00 | 91 | 1009.1 |
| 20260906081516 | 74 | 87 | 0.0 | 0.0 | 0.00 | 0.00 | 0.00 | 91 | 1009.0 |
| 20260906080025 | 75 | 87 | 0.0 | 0.0 | 0.00 | 0.00 | 0.00 | 90 | 1008.9 |
| 20260906074515 | 75 | 87 | 0.0 | 0.0 | 0.00 | 0.00 | 0.00 | 90 | 1008.9 |
| 20260906073013 | 75 | 87 | 0.0 | 0.0 | 0.00 | 0.00 | 0.00 | 90 | 1008.9 |
| 20260906071511 | 75 | 87 | 0.0 | 0.0 | 0.00 | 0.00 | 0.00 | 89 | 1009.0 |
| 20260906070010 | 75 | 87 | 0.0 | 0.0 | 0.00 | 0.00 | 0.00 | 89 | 1009.2 |
| 20260906064508 | 76 | 87 | 0.0 | 0.0 | 0.00 | 0.00 | 0.00 | 89 | 1009.2 |
| 20260906063007 | 76 | 87 | 0.0 | 0.0 | 0.00 | 0.00 | 0.00 | 88 | 1009.3 |
| 20260906061506 | 76 | 87 | 0.0 | 0.0 | 0.00 | 0.00 | 0.00 | 88 | 1009.4 |
| 20260906060004 | 76 | 87 | 0.0 | 2.0 | 0.00 | 0.00 | 0.00 | 88 | 1009.5 |
| 20260906054501 | 77 | 87 | 0.0 | 0.0 | 0.00 | 0.00 | 0.00 | 87 | 1009.4 |
| 20260906053109 | 77 | 87 | 0.0 | 0.0 | 0.00 | 0.00 | 0.00 | 87 | 1009.4 |
| 20260906051602 | 77 | 87 | 0.0 | 0.0 | 0.00 | 0.00 | 0.00 | 86 | 1009.3 |
| 20260906050059 | 77 | 87 | 0.0 | 0.0 | 0.00 | 0.00 | 0.00 | 86 | 1009.4 |
| 20260906044558 | 78 | 87 | 0.0 | 0.0 | 0.00 | 0.00 | 0.00 | 86 | 1009.3 |
| 20260906043102 | 78 | 87 | 0.0 | 0.0 | 0.00 | 0.00 | 0.00 | 85 | 1009.2 |
| 20260906041601 | 78 | 87 | 0.0 | 0.0 | 0.00 | 0.00 | 0.00 | 85 | 1009.2 |
| 20260906040057 | 79 | 87 | 0.0 | 0.0 | 0.00 | 0.00 | 0.00 | 85 | 1009.1 |
| 20260906034556 | 79 | 87 | 0.0 | 0.0 | 0.00 | 0.00 | 0.00 | 84 | 1008.9 |
| 20260906033109 | 80 | 87 | 0.0 | 0.0 | 0.00 | 0.00 | 0.00 | 84 | 1008.8 |
| 20260906031556 | 80 | 87 | 0.0 | 0.0 | 0.00 | 0.00 | 0.00 | 83 | 1008.7 |
| 20260906030056 | 81 | 87 | 0.0 | 0.0 | 0.00 | 0.00 | 0.00 | 83 | 1008.5 |
| 20260906024557 | 81 | 87 | 0.0 | 0.0 | 0.00 | 0.00 | 0.00 | 83 | 1008.3 |
| 20260906023056 | 82 | 87 | 0.0 | 0.0 | 0.00 | 0.00 | 0.00 | 82 | 1008.2 |
| 20260906021558 | 83 | 87 | 0.0 | 0.0 | 0.00 | 0.00 | 0.00 | 80 | 1008.0 |
| 20260906020105 | 84 | 87 | 0.0 | 0.0 | 0.00 | 0.00 | 0.00 | 79 | 1007.8 |
| 20260906014555 | 84 | 87 | 0.0 | 0.0 | 0.00 | 0.00 | 0.00 | 78 | 1007.6 |
| 20260906013106 | 85 | 87 | 0.0 | 0.0 | 0.00 | 0.00 | 0.00 | 76 | 1007.5 |
| 20260906011602 | 87 | 87 | 0.0 | 0.0 | 0.00 | 0.00 | 0.00 | 75 | 1007.4 |
| 20260906010052 | 88 | 87 | 0.0 | 0.0 | 0.00 | 0.00 | 0.00 | 74 | 1007.3 |
| 20260906004601 | 89 | 87 | 0.0 | 0.0 | 0.00 | 0.00 | 0.00 | 72 | 1007.2 |
| 20260906003057 | 91 | 87 | 0.0 | 0.0 | 0.00 | 0.00 | 0.00 | 70 | 1007.3 |
| 20260906001552 | 92 | 87 | 0.0 | 0.0 | 0.00 | 0.00 | 0.00 | 69 | 1007.2 |
| 20260906000057 | 93 | 87 | 0.0 | 0.0 | 0.00 | 0.00 | 0.00 | 66 | 1007.3 |
| 20260905234550 | 94 | 87 | 0.0 | 0.0 | 0.00 | 0.00 | 0.00 | 62 | 1007.2 |
| 20260905233049 | 94 | 87 | 0.0 | 0.0 | 0.00 | 0.00 | 0.00 | 60 | 1007.2 |
| 20260905231549 | 96 | 87 | 0.0 | 0.0 | 0.00 | 0.00 | 0.00 | 57 | 1007.0 |
| 20260905230053 | 97 | 87 | 0.0 | 0.0 | 0.00 | 0.00 | 0.00 | 52 | 1007.0 |
| 20260905224551 | 97 | 87 | 0.0 | 2.0 | 0.00 | 0.00 | 0.00 | 52 | 1007.1 |
| 20260905223046 | 97 | 87 | 0.0 | 5.0 | 0.00 | 0.00 | 0.00 | 50 | 1007.1 |
| 20260905221546 | 99 | 87 | 1.0 | 5.0 | 0.00 | 0.00 | 0.00 | 46 | 1007.0 |
| 20260905220045 | 99 | 87 | 1.0 | 7.0 | 0.00 | 0.00 | 0.00 | 45 | 1007.1 |
| 20260905214543 | 101 | 42 | 2.0 | 4.0 | 0.00 | 0.00 | 0.00 | 44 | 1007.3 |
| 20260905213041 | 99 | 33 | 1.0 | 4.0 | 0.00 | 0.00 | 0.00 | 45 | 1007.6 |